Regional Weather Roundup
Issued by NWS

Home | Current Version | Previous Version | Graphics & Text | Print | Product List | Glossary On
Versions: 1 2 3 4 5 6 7 8 9 10 11 12 13 14 15 16 17 18 19 20 21 22 23 24 25 26 27 28 29 30 31 32 33 34 35 36 37 38 39 40 41 42 43 44 45 46 47 48 49 50
000
ASUS45 KABQ 120101
RWRNM
WEATHER ROUNDUP FOR NEW MEXICO
NATIONAL WEATHER SERVICE ALBUQUERQUE NM
700 PM MDT FRI JUL 11 2014

NOTE: "FAIR" MEANS FEW OR NO CLOUDS BELOW 12,000 FEET AGL WITH NO
       SIGNIFICANT WEATHER OR OBSTRUCTIONS TO VISION.

      THIS PRODUCT IS RELEASED AS TWO VERSIONS.  ONE VERSION NEAR
      THE TOP OF THE HOUR CONTAINING PRELIMINARY DATA FROM ALBUQUERQUE
      AND OTHER STATIONS.  A FINAL VERSION WITH ADDITIONAL DATA IS
      ISSUED ABOUT 10 MINUTES AFTER THE HOUR.

NMZ501-503-504-510>518-120200-
NORTHWEST PLATEAU/NORTHCENTRAL MOUNTAINS

CITY           SKY/WX    TMP DP  RH WIND       PRES   REMARKS
FARMINGTON     SUNNY     90  43  19 W8        30.05S
LOS ALAMOS     LGT RAIN  69  54  57 N15       30.29R
SANTA FE       CLOUDY    79  49  34 E8        30.19R
TAOS             N/A    N/A N/A N/A MISG        N/A
ANGEL FIRE     LGT RAIN  58  54  86 CALM      30.41R

$$
NMZ402-403-502-505>509-120200-
WESTCENTRAL MOUNTAINS/SOUTHWEST MOUNTAINS

CITY           SKY/WX    TMP DP  RH WIND       PRES   REMARKS
GALLUP         LGT RAIN  63  58  83 SW23G30   30.25F
GRANTS         PTSUNNY   71  50  47 W17G28    30.22F

$$
NMZ407-409-411-412-120200-
SOUTHERN DESERTS

CITY           SKY/WX    TMP DP  RH WIND       PRES   REMARKS
LORDSBURG      CLOUDY    81  55  41 N14G33    30.06R THUNDER
DEMING         CLOUDY    75  57  53 NW10      30.03F
LAS CRUCES     PTSUNNY   86  52  30 W14       30.03R
HOLLOMAN AFB   MOSUNNY   95  51  22 SW12      29.96F
T OR C         CLOUDY    73  58  59 NW21G28   30.09S

$$
NMZ519>523-120200-
CENTRAL VALLEYS/CENTRAL HIGHLANDS

CITY           SKY/WX    TMP DP  RH WIND       PRES   REMARKS
ALBUQUERQUE    CLOUDY    88  50  27 E12       30.08R
DOUBLE EAGLE   PTSUNNY   79  54  41 NW14G22   30.16R THUNDER
MORIARTY ARPT  CLOUDY    75  55  48 E5        30.19R
CLINES CORNERS PTSUNNY   77  48  35 SE13      30.24R
BELEN          MOCLDY    90  47  22 S10       30.06R
SOCORRO        FAIR      89  45  21 S6        30.06F

$$
NMZ524>526-539-540-120200-
SOUTHCENTRAL MOUNTAINS

CITY           SKY/WX    TMP DP  RH WIND       PRES   REMARKS
RUIDOSO        NOT AVBL

$$
NMZ527>531-120200-
NORTHEAST HIGHLANDS/NORTHEAST PLAINS

CITY           SKY/WX    TMP DP  RH WIND       PRES   REMARKS
LAS VEGAS      MOSUNNY   77  47  34 S17       30.25R
RATON          MOSUNNY   83  47  28 S15       30.19R
CLAYTON        SUNNY     87  44  22 S20G26    30.11R

$$
NMZ532>537-120200-
EASTCENTRAL PLAINS

CITY           SKY/WX    TMP DP  RH WIND       PRES   REMARKS
TUCUMCARI      SUNNY     90  48  23 S16       30.05R
CANNON AFB     SUNNY     83  57  41 S15       30.11R
CLOVIS AIRPORT NOT AVBL

$$
NMZ028-029-538-120200-
SOUTHEAST PLAINS

CITY           SKY/WX    TMP DP  RH WIND       PRES   REMARKS
ROSWELL        SUNNY     89  51  27 SE15      30.03R
ARTESIA        SUNNY     88  54  31 SE15G21   30.02R
CARLSBAD       SUNNY     87  56  34 E18G29    30.01R
HOBBS          SUNNY     82  57  42 SE22      30.08R


$$



USA.gov is the U.S. government's official web portal to all federal, state and local government web resources and services.